Regional Weather Roundup
Issued by NWS

Home | Current Version | Previous Version | Graphics & Text | Print | Product List | Glossary On
Versions: 1 2 3 4 5 6 7 8 9 10 11 12 13 14 15 16 17 18 19 20 21 22 23 24 25 26 27 28 29 30 31 32 33 34 35 36 37 38 39 40 41 42 43 44 45 46 47 48 49 50
000
ASUS43 KLOT 300608
RWRIL

ILLINOIS REGIONAL WEATHER ROUNDUP
NATIONAL WEATHER SERVICE CHICAGO/ROMEOVILLE IL
100 AM CDT TUE AUG 30 2016

NOTE: "FAIR" INDICATES FEW OR NO CLOUDS BELOW 12,000 FEET WITH NO
SIGNIFICANT WEATHER AND/OR OBSTRUCTIONS TO VISIBILITY.

* THESE STATIONS ARE NOT UNDER NWS QUALITY CONTROL. THEY ALSO MAY NOT
  REPORT WEATHER SUCH AS PRECIPITATION OR FOG.

ILZ001-002-007-009-015-016-024-300700-
NORTHWEST ILLINOIS

CITY           SKY/WX    TMP DP  RH WIND       PRES   REMARKS
MOLINE         FAIR      73  69  87 CALM      30.17S
6HR MIN TEMP:  72; 6HR MAX TEMP:  79;

STERLING*      FAIR      70  70 100 CALM      30.19S FOG
SAVANNA*       MOCLDY    69  68  98 N3        30.19S
$$

ILZ003-004-008-010-011-017-018-300700-
NORTH CENTRAL ILLINOIS

CITY           SKY/WX    TMP DP  RH WIND       PRES   REMARKS
ROCKFORD       CLOUDY    72  69  90 CALM      30.20S
6HR MIN TEMP:  70; 6HR MAX TEMP:  72; 6HR PCP: TRACE;

FREEPORT*      FAIR      65  65  99 CALM      30.21F FOG
ROCHELLE*      MOCLDY    69  69  99 CALM      30.21R FOG
DE KALB*       FAIR      70  69  98 CALM      30.21S FOG
$$

ILZ005-006-012>014-019>023-300700-
NORTHEAST ILLINOIS

CITY           SKY/WX    TMP DP  RH WIND       PRES   REMARKS
CHICAGO-OHARE  MOCLDY    73  72  96 CALM      30.18R FOG
6HR MIN TEMP:  73; 6HR MAX TEMP:  75; 6HR PCP:  0.02;

CHICAGO-MIDWAY MOCLDY    77  71  82 CALM      30.17S
6HR MIN TEMP:  77; 6HR MAX TEMP:  80; 6HR PCP: TRACE;

AURORA         FAIR      71  69  93 CALM      30.19R FOG
6HR MIN TEMP:  71; 6HR MAX TEMP:  75; 6HR PCP:  0.01;

LANSING*       FAIR      72  72 100 CALM      30.19R FOG
JOLIET*        FOG       73  72  99 CALM      30.18S VSB 1/4
WAUKEGAN       FAIR      72  70  93 CALM      30.19R FOG
6HR MIN TEMP:  70; 6HR MAX TEMP:  75;

DUPAGE AIRPORT FAIR      72  69  90 N5        30.19R FOG
6HR MIN TEMP:  71; 6HR MAX TEMP:  74; 6HR PCP:  0.02;

KANKAKEE*      CLEAR     73  72  98 CALM      30.19R FOG
WHEELING       FAIR      72  71  97 CALM      30.20S FOG
6HR MIN TEMP:  72; 6HR MAX TEMP:  75; 6HR PCP:  0.03;

MORRIS*          N/A     71  70  97 CALM      30.18R FOG
ROMEOVILLE*    FAIR      72  72 100 NE3       30.19R FOG
$$

LMZ740>746-300700-
SOUTHERN LAKE MICHIGAN

STATION/POSITION SKY/WX   TEMP    WIND        PRES    VSBY  WAVE
                          AIR SEA DIR/SP/G                  HT/PER
                          (F)     (DEG/KT/KT) (MB)    (MI)  (FT/S)
SOUTHERN BUOY              75 76     CALM     1021.5R         0
WILMETTE HARBOR            73 73  350/  6/  6   N/A           1
HARRISON CRIB              75      10/  1/  1   N/A
BURNHAM HARBOR             74      CALM  /  2   N/A
CALUMET HARBOR             75     340/  1/  2 1021.3F
BURNS HARBOR               78     120/  3/  7 1022.0S
MICHIGAN CITY              76     120/  6/  7   N/A
MICHIGAN CITY 6N           74 75  190/  4/  4   N/A           1
ST. JOSEPH                 75 76  100/  2/  4 1021.5F         0
$$

ILZ025>027-034>036-040-047-049-050-058-095>099-300700-
WEST-CENTRAL ILLINOIS

CITY           SKY/WX    TMP DP  RH WIND       PRES   REMARKS
QUINCY         CLEAR     74  70  87 E3        30.16S
GALESBURG*     CLOUDY    72  70  92 E5        30.17S
MACOMB*        PTCLDY    70  70  98 CALM      30.19S FOG
JACKSONVILLE*  CLEAR     75  73  91 CALM      30.16S
PITTSFIELD*    CLEAR     73  72  98 CALM      30.17S FOG
$$

ILZ028>032-037-038-041>044-048-051>054-059>061-300700-
CENTRAL ILLINOIS

CITY           SKY/WX    TMP DP  RH WIND       PRES   REMARKS
PONTIAC        PTCLDY    73  73 100 NE3       30.19R FOG
BLOOMINGTON    CLEAR     74  71  91 CALM      30.19R
DECATUR        CLEAR     72  70  93 CALM      30.16S
PEORIA         PTCLDY    74  74 100 CALM      30.17S FOG
6HR MIN TEMP:  74; 6HR MAX TEMP:  79; 6HR PCP: TRACE;

LACON*         CLOUDY    70  69  96 CALM      30.18R
LINCOLN*       CLEAR     73  73 100 CALM      30.17R FOG
SPRINGFIELD    CLEAR     74  72  93 N3        30.16R
6HR MIN TEMP:  74; 6HR MAX TEMP:  86;

TAYLORVILLE    CLEAR     73  72  97 CALM      30.16R
6HR MIN TEMP:  71; 6HR MAX TEMP:  83;

$$

ILZ033-039-045-046-055>057-062-063-300700-
EAST-CENTRAL ILLINOIS

CITY           SKY/WX    TMP DP  RH WIND       PRES   REMARKS
CHAMPAIGN      CLEAR     73  71  93 CALM      30.17S
RANTOUL*       CLEAR     74  73  96 CALM      30.17R
MATTOON        CLEAR     73  71  93 CALM      30.15F FOG
PARIS*         CLEAR     70  70 100 CALM      30.17S FOG
$$

ILZ079-100>102-300700-
SOUTHWEST ILLINOIS

CITY           SKY/WX    TMP DP  RH WIND       PRES   REMARKS
ALTON          CLEAR     73  73  97 CALM      30.16R FOG
BELLEVILLE     CLEAR     74  74 100 CALM      30.13S
CAHOKIA*       CLEAR     74  71  91 CALM      30.13F
SPARTA*        CLEAR     74  72  91 CALM      30.15S
$$

ILZ064>066-069>071-074>076-080>082-084>086-088>090-092>094-300700-
SOUTH-CENTRAL ILLINOIS

CITY           SKY/WX    TMP DP  RH WIND       PRES   REMARKS
CARBONDALE     CLEAR     73  71  93 N5        30.13S FOG
6HR MIN TEMP:  72; 6HR MAX TEMP:  83;

CAIRO*         CLEAR     73  72  99 CALM      30.10F
EFFINGHAM*     CLEAR     71  71 100 CALM      30.17S FOG
MARION         CLEAR     73  72  94 CALM      30.14S
MT. VERNON     CLEAR     73  66  78 NE3       30.15S
CENTRALIA*     FOG       71  71 100 CALM      30.14S VSB 1/2
SALEM*         CLEAR     74  71  92 CALM      30.15S
METROPOLIS*    CLEAR     74  73  95 CALM      30.11F
$$

ILZ067-068-072-073-078-083-087-091-300700-
SOUTHEAST ILLINOIS

CITY           SKY/WX    TMP DP  RH WIND       PRES   REMARKS
LAWRENCEVILLE  CLEAR     75  75 100 NE3       30.14F
FLORA*         CLEAR     75  73  93 CALM      30.15S
FAIRFIELD*       N/A     73  72  97 CALM      30.13S
HARRISBURG*    CLEAR     73  72  95 CALM      30.12F
ROBINSON*      FOG       68  68 100 CALM      30.15F VSB 1/2
CARMI*         CLEAR     72  72 100 CALM      30.12F FOG
$$

ABBREVIATIONS USED IN REMARKS
   TC - TEMPERATURE IN CELSIUS
  WCI - WIND CHILL INDEX
   HX - HEAT INDEX
  VSB - VISIBILITY
$$





USA.gov is the U.S. government's official web portal to all federal, state and local government web resources and services.